Location: Archemont
(49.1579°N, 1.7598°E)
Time: 10:02:04
(UTC+00:00)

Altair - Pass Details

Date: 26 April 2024
Orbit: 1501 x 1682 km, 47.2° (Epoch: 17 May)

Event Time Altitude Azimuth Distance (km) Brightness Sun altitude
Rises 14:56:07 0° 184° (S) 4,919 10.5 38.2°
Reaches altitude 10° 15:00:30 10° 168° (SSE) 3,936 9.9 37.6°
Maximum altitude 15:06:57 19° 128° (SE) 3,242 9.1 36.6°
Drops below altitude 10° 15:13:21 10° 87° (E) 3,910 9.3 35.7°
Sets 15:17:38 0° 72° (ENE) 4,877 9.6 35.0°
